CW1988 Weather Reports


Display with metric or nautical units.
time (UTC)temp
F
wind
direction
speed
MPH
gust
MPH
rain 1hr
in
rain 24hr
in
rain mn
in
humidity
%
barometer
mb
20260904223930 79 132 0.0 0.0 0.00 0.38 0.38 86 1014.0
20260904223429 79 132 0.0 0.0 0.00 0.38 0.38 85 1014.1
20260904222926 80 136 0.0 0.0 0.00 0.38 0.38 84 1014.0
20260904222421 80 133 0.0 0.0 0.00 0.38 0.38 84 1014.0
20260904221920 81 132 0.0 0.0 0.00 0.38 0.38 82 1014.1
20260904221414 82 134 0.0 0.0 0.00 0.38 0.38 81 1014.2
20260904220910 83 142 0.0 0.0 0.00 0.38 0.38 80 1014.0
20260904220409 84 138 0.0 0.0 0.00 0.38 0.38 80 1013.9
20260904215905 84 138 0.0 0.0 0.00 0.38 0.38 80 1013.8
20260904215400 84 138 0.0 0.0 0.00 0.38 0.38 80 1013.9
20260904214855 84 138 0.0 0.0 0.00 0.38 0.38 80 1013.8
20260904214351 84 138 0.0 0.0 0.00 0.38 0.38 79 1013.9
20260904213850 84 138 0.0 0.0 0.00 0.38 0.38 81 1013.9
20260904213345 83 138 0.0 0.0 0.00 0.38 0.38 81 1013.8
20260904212841 83 138 0.0 0.0 0.00 0.38 0.38 82 1014.0
20260904212340 83 138 0.0 0.0 0.00 0.38 0.38 81 1013.9
20260904211836 83 138 0.0 0.0 0.00 0.38 0.38 82 1013.7
20260904211331 83 139 0.0 0.0 0.00 0.38 0.38 79 1013.7
20260904210820 83 139 0.0 0.0 0.00 0.38 0.38 81 1013.7
20260904210314 83 138 0.0 0.0 0.00 0.38 0.38 79 1013.4
20260904205811 84 138 0.0 0.0 0.00 0.38 0.38 79 1013.5
20260904205306 84 139 0.0 0.0 0.00 0.38 0.38 78 1013.6
20260904204803 83 134 0.0 1.0 0.00 0.38 0.38 79 1013.5
20260904204259 83 131 0.0 0.0 0.00 0.38 0.38 82 1013.2
20260904203755 83 130 0.0 0.0 0.00 0.38 0.38 82 1013.4
20260904203250 82 149 0.0 1.0 0.00 0.38 0.38 81 1013.4
20260904202740 82 135 0.0 0.0 0.00 0.38 0.38 83 1013.5
20260904202236 82 139 0.0 0.0 0.00 0.38 0.38 84 1013.4
20260904201731 82 138 0.0 0.0 0.00 0.38 0.38 83 1013.5
20260904201226 82 138 0.0 0.0 0.00 0.38 0.38 84 1013.6
20260904200721 81 145 0.0 0.0 0.00 0.38 0.38 87 1013.5
20260904200215 80 145 0.0 0.0 0.00 0.38 0.38 85 1013.6
20260904195714 80 137 0.0 0.0 0.00 0.38 0.38 84 1013.6
20260904195213 80 135 0.0 0.0 0.00 0.38 0.38 85 1013.5
20260904194708 80 151 0.0 0.0 0.00 0.38 0.38 86 1013.5
20260904194202 80 152 2.0 3.0 0.00 0.38 0.38 83 1013.8
20260904193657 79 139 0.0 0.0 0.00 0.38 0.38 88 1013.6
20260904193154 79 139 0.0 0.0 0.00 0.38 0.38 87 1014.2
20260904192653 78 138 0.0 0.0 0.00 0.38 0.38 87 1014.3
20260904192148 78 138 0.0 0.0 0.00 0.38 0.38 89 1014.2
20260904191645 78 129 0.0 0.0 0.00 0.38 0.38 89 1014.1
20260904191141 78 129 0.0 0.0 0.00 0.38 0.38 89 1014.2
20260904190637 77 129 0.0 0.0 0.00 0.38 0.38 89 1014.2
20260904190132 77 129 0.0 0.0 0.00 0.38 0.38 90 1014.4
20260904185629 77 129 0.0 0.0 0.00 0.38 0.38 90 1014.2
20260904185124 78 129 0.0 0.0 0.00 0.38 0.38 88 1014.5
20260904184622 78 128 0.0 0.0 0.00 0.38 0.38 88 1014.2
20260904184119 78 128 0.0 0.0 0.00 0.38 0.38 88 1014.4
20260904183614 78 132 0.0 0.0 0.00 0.38 0.38 87 1014.4
20260904183114 78 135 0.0 0.0 0.00 0.38 0.38 89 1014.3
20260904182610 77 145 0.0 0.0 0.00 0.38 0.38 90 1014.5
20260904182110 76 141 0.0 0.0 0.00 0.38 0.38 92 1014.6
20260904181606 75 135 0.0 0.0 0.00 0.38 0.38 92 1014.9
20260904181106 75 147 0.0 0.0 0.00 0.38 0.38 91 1014.6
20260904180600 74 147 0.0 0.0 0.00 0.38 0.38 93 1014.7
20260904180056 74 135 0.0 0.0 0.00 0.38 0.38 95 1014.8
20260904175550 73 132 0.0 0.0 0.00 0.38 0.38 95 1014.6
20260904175048 73 131 0.0 0.0 0.00 0.38 0.38 94 1014.7
20260904174544 73 136 0.0 0.0 0.00 0.38 0.38 95 1014.5
20260904174040 72 138 0.0 0.0 0.00 0.38 0.38 95 1014.7
20260904173540 72 146 0.0 0.0 0.00 0.38 0.38 96 1014.6
20260904173036 72 156 0.0 0.0 0.00 0.38 0.38 96 1014.5
20260904172532 72 146 0.0 0.0 0.00 0.38 0.38 97 1014.6
20260904172031 71 146 0.0 0.0 0.00 0.38 0.38 96 1014.4
20260904171526 71 133 0.0 0.0 0.00 0.38 0.38 96 1014.5
20260904171022 71 138 0.0 1.0 0.00 0.38 0.38 97 1014.7
20260904170517 71 138 0.0 0.0 0.00 0.38 0.38 97 1014.6
20260904170013 70 143 0.0 0.0 0.00 0.38 0.38 97 1014.6
20260904165512 70 156 1.0 2.0 0.00 0.38 0.38 96 1014.1
20260904165011 69 132 0.0 0.0 0.00 0.38 0.38 97 1014.5
20260904164507 69 133 0.0 1.0 0.00 0.38 0.38 97 1014.6
20260904164003 69 136 1.0 2.0 0.05 0.38 0.38 97 1015.0
20260904163502 69 133 1.0 2.0 0.05 0.38 0.38 97 1015.1
20260904163001 69 142 0.0 1.0 0.00 0.37 0.37 98 1015.1
20260904162456 69 131 0.0 0.0 0.00 0.37 0.37 98 1015.3
20260904161952 69 143 0.0 0.0 0.00 0.37 0.37 98 1015.4
20260904161447 69 134 0.0 0.0 0.00 0.37 0.37 97 1014.9
20260904160943 69 136 1.0 1.0 0.00 0.37 0.37 98 1015.0
20260904160443 69 134 0.0 0.0 0.07 0.37 0.37 98 1015.1
20260904155938 69 130 0.0 0.0 0.31 0.37 0.37 98 1015.0
20260904155433 69 132 0.0 0.0 0.24 0.36 0.36 98 1015.5
20260904154931 69 137 0.0 0.0 0.07 0.32 0.32 98 1016.7
20260904154426 69 136 0.0 0.0 0.07 0.32 0.32 98 1016.2
20260904153921 68 146 0.0 1.0 0.00 0.31 0.31 98 1015.5
20260904153416 68 133 0.0 0.0 0.05 0.31 0.31 98 1015.6
20260904152913 68 128 1.0 1.0 0.24 0.31 0.31 99 1016.3
20260904152414 68 138 1.0 1.0 0.40 0.29 0.29 99 1016.5
20260904151913 68 117 0.0 1.0 0.35 0.27 0.27 99 1016.3
20260904151408 68 132 0.0 0.0 0.07 0.22 0.22 99 1017.2
20260904150903 68 132 0.0 0.0 0.00 0.21 0.21 99 1017.0
20260904150358 68 132 0.0 0.0 0.00 0.21 0.21 99 1016.7
20260904145856 68 132 0.0 0.0 0.00 0.21 0.21 99 1016.9
20260904145352 68 128 0.0 0.0 0.00 0.21 0.21 99 1017.0
20260904144848 68 132 0.0 0.0 0.00 0.21 0.21 99 1016.9
20260904144344 68 131 1.0 1.0 0.00 0.21 0.21 99 1017.0
20260904143839 68 138 0.0 0.0 0.00 0.21 0.21 99 1017.5
20260904143336 68 132 0.0 0.0 0.00 0.21 0.21 99 1017.2
20260904142831 68 131 0.0 0.0 0.00 0.21 0.21 99 1016.7
20260904142327 68 126 0.0 1.0 0.00 0.21 0.21 99 1017.3
20260904141821 68 131 0.0 0.0 0.00 0.21 0.21 99 1017.8
20260904141317 68 139 0.0 0.0 0.00 0.21 0.21 99 1017.8
20260904140814 68 132 0.0 1.0 0.00 0.21 0.21 98 1017.5
20260904140308 68 130 0.0 0.0 0.00 0.21 0.21 98 1017.7
20260904135806 68 134 0.0 0.0 0.05 0.21 0.21 98 1017.8
20260904135305 68 144 0.0 0.0 0.24 0.21 0.21 98 1017.9
20260904134758 68 145 0.0 0.0 0.19 0.20 0.20 98 1017.8
20260904134257 68 138 0.0 1.0 0.54 0.17 0.17 98 1018.2
20260904133752 68 145 0.0 0.0 0.73 0.17 0.17 97 1018.6
20260904133248 68 128 0.0 1.0 0.31 0.09 0.09 95 1019.1
20260904132747 69 166 0.0 0.0 0.05 0.05 0.05 94 1018.8
20260904132243 69 132 0.0 0.0 0.00 0.04 0.04 93 1017.7
20260904131742 68 175 1.0 3.0 0.00 0.04 0.04 93 1017.5
20260904131238 68 165 1.0 2.0 0.00 0.04 0.04 96 1018.7
20260904130733 68 170 0.0 0.0 0.00 0.04 0.04 97 1018.2
20260904130232 68 132 0.0 0.0 0.00 0.04 0.04 97 1016.9
20260904125728 68 132 0.0 0.0 0.00 0.04 0.04 97 1016.4
20260904125223 68 137 0.0 0.0 0.00 0.04 0.04 97 1016.0
20260904124718 68 126 0.0 0.0 0.00 0.04 0.04 97 1016.2
20260904124214 68 144 0.0 0.0 0.00 0.04 0.04 97 1016.4
20260904123709 68 145 0.0 0.0 0.00 0.04 0.04 97 1016.6
20260904123204 68 135 0.0 1.0 0.00 0.04 0.04 97 1016.5
20260904122704 68 131 1.0 1.0 0.00 0.04 0.04 97 1016.4
20260904122159 68 134 0.0 1.0 0.00 0.04 0.04 97 1016.4
20260904121654 68 140 0.0 1.0 0.00 0.04 0.04 97 1016.6
20260904121149 68 118 1.0 1.0 0.00 0.04 0.04 97 1016.6
20260904120646 68 144 0.0 0.0 0.00 0.04 0.04 97 1016.5
20260904120142 68 129 0.0 0.0 0.00 0.04 0.04 97 1016.6
20260904115637 68 151 0.0 0.0 0.00 0.04 0.04 97 1016.4
20260904115131 68 116 2.0 3.0 0.00 0.04 0.04 97 1016.1
20260904114626 68 158 0.0 0.0 0.00 0.04 0.04 98 1016.2
20260904114120 68 139 1.0 2.0 0.00 0.04 0.04 98 1015.6
20260904113620 68 132 0.0 0.0 0.00 0.04 0.04 98 1015.7
20260904113120 68 133 0.0 0.0 0.00 0.04 0.04 98 1015.7
20260904112615 68 141 0.0 0.0 0.00 0.04 0.04 98 1015.4
20260904112111 68 128 0.0 0.0 0.00 0.04 0.04 98 1015.3
20260904111606 68 126 0.0 0.0 0.00 0.04 0.04 98 1015.2
20260904111102 68 126 0.0 0.0 0.00 0.04 0.04 98 1015.2
20260904110556 69 126 0.0 0.0 0.00 0.04 0.04 98 1015.1
20260904110052 69 126 0.0 0.0 0.00 0.04 0.04 98 1015.0
20260904105551 69 126 0.0 0.0 0.00 0.04 0.04 98 1014.9
20260904105046 69 126 0.0 0.0 0.00 0.04 0.04 98 1014.8
20260904104542 69 127 0.0 0.0 0.00 0.04 0.04 98 1014.9
20260904104037 69 127 0.0 0.0 0.00 0.04 0.04 98 1014.8
20260904103533 69 127 0.0 0.0 0.00 0.04 0.04 97 1014.7
20260904103029 69 127 0.0 0.0 0.00 0.04 0.04 97 1014.8
20260904102525 69 127 0.0 0.0 0.07 0.04 0.04 97 1014.8
20260904102020 69 132 0.0 0.0 0.07 0.04 0.04 97 1014.9
20260904101517 69 132 0.0 0.0 0.00 0.03 0.03 97 1014.9
20260904101012 70 133 0.0 0.0 0.00 0.03 0.03 96 1015.0
20260904100508 70 127 0.0 0.0 0.00 0.03 0.03 96 1015.2
20260904100008 70 138 0.0 0.0 0.00 0.03 0.03 96 1015.2
20260904095501 70 130 0.0 0.0 0.00 0.03 0.03 96 1015.1
20260904094956 70 130 0.0 0.0 0.00 0.03 0.03 96 1015.1
20260904094451 70 131 0.0 0.0 0.00 0.03 0.03 96 1014.9
20260904093947 70 129 0.0 0.0 0.00 0.03 0.03 96 1014.7
20260904093443 70 143 0.0 0.0 0.00 0.03 0.03 96 1015.0
20260904092938 70 140 0.0 0.0 0.00 0.03 0.03 96 1014.7
20260904092435 70 132 0.0 1.0 0.00 0.03 0.03 97 1014.8
20260904091930 70 137 1.0 1.0 0.00 0.03 0.03 97 1014.8
20260904091426 70 146 0.0 0.0 0.00 0.03 0.03 97 1015.2
20260904090915 71 137 0.0 0.0 0.00 0.03 0.03 98 1014.8
20260904090411 72 126 0.0 0.0 0.00 0.03 0.03 98 1014.9
20260904085906 72 125 0.0 0.0 0.00 0.03 0.03 98 1014.6
20260904085401 72 125 0.0 0.0 0.00 0.03 0.03 98 1014.1
20260904084855 72 125 0.0 0.0 0.05 0.03 0.03 98 1014.1
20260904084352 72 125 0.0 0.0 0.05 0.03 0.03 98 1013.9
20260904083847 72 125 0.0 0.0 0.00 0.02 0.02 98 1014.0
20260904083343 72 125 0.0 0.0 0.00 0.02 0.02 98 1013.9
20260904082839 72 125 0.0 0.0 0.00 0.02 0.02 98 1014.1
20260904082333 72 125 0.0 0.0 0.00 0.02 0.02 98 1014.0
20260904081829 72 125 0.0 0.0 0.00 0.02 0.02 98 1014.1
20260904081324 72 125 0.0 0.0 0.00 0.02 0.02 98 1013.8
20260904080820 72 125 0.0 0.0 0.00 0.02 0.02 97 1013.6
20260904080315 72 125 0.0 0.0 0.07 0.02 0.02 97 1013.7
20260904075812 72 125 0.0 0.0 0.00 0.01 0.01 97 1013.9
20260904075311 72 125 0.0 0.0 0.05 0.01 0.01 97 1014.0
20260904074810 72 125 0.0 0.0 0.05 0.01 0.01 96 1013.8
20260904074306 72 125 0.0 0.0 0.00 0.00 0.00 96 1014.1
20260904073801 72 125 0.0 0.0 0.00 0.00 0.00 96 1014.4
20260904073256 72 125 0.0 0.0 0.00 0.00 0.00 95 1014.1
20260904072753 72 125 0.0 0.0 0.00 0.00 0.00 95 1014.1
20260904072252 72 125 0.0 0.0 0.00 0.00 0.00 95 1014.4
20260904071748 72 125 0.0 0.0 0.00 0.00 0.00 96 1014.3
20260904071243 72 125 0.0 0.0 0.00 0.00 0.00 96 1014.3
20260904070738 72 125 1.0 1.0 0.00 0.00 0.00 96 1014.4
20260904070236 71 125 0.0 0.0 0.00 0.00 0.00 96 1014.4
20260904065731 71 125 0.0 0.0 0.00 0.00 0.00 96 1014.5
20260904065228 71 125 0.0 0.0 0.00 0.00 0.00 95 1014.3
20260904064728 72 125 0.0 0.0 0.00 0.00 0.00 95 1014.2
20260904064223 72 126 0.0 0.0 0.00 0.00 0.00 95 1014.7
20260904063719 72 126 0.0 0.0 0.00 0.00 0.00 95 1015.1
20260904063215 72 132 0.0 0.0 0.00 0.00 0.00 95 1015.0
20260904062711 72 132 0.0 0.0 0.00 0.00 0.00 95 1015.0
20260904062206 72 124 0.0 1.0 0.00 0.00 0.00 95 1015.0
20260904061702 72 121 1.0 2.0 0.00 0.00 0.00 94 1015.1
20260904061158 72 149 0.0 0.0 0.00 0.00 0.00 94 1015.0
20260904060654 72 149 0.0 0.0 0.00 0.00 0.00 94 1015.1
20260904060150 72 149 0.0 0.0 0.00 0.00 0.00 94 1015.2
20260904055644 72 150 0.0 0.0 0.00 0.00 0.00 95 1015.3
20260904055140 71 141 0.0 0.0 0.00 0.00 0.00 96 1015.4
20260904054636 71 129 0.0 0.0 0.00 0.00 0.00 97 1015.4
20260904054132 71 133 0.0 0.0 0.00 0.00 0.00 97 1015.3
20260904053632 71 148 0.0 0.0 0.00 0.00 0.00 98 1016.0
20260904053126 71 126 0.0 0.0 0.00 0.00 0.00 98 1016.0
20260904052623 71 126 0.0 0.0 0.00 0.00 0.00 98 1015.6
20260904052118 71 126 0.0 0.0 0.00 0.00 0.00 98 1015.4
20260904051614 71 126 0.0 0.0 0.00 0.00 0.00 98 1015.5
20260904051109 71 125 0.0 0.0 0.00 0.00 0.00 98 1015.4
20260904050605 71 125 0.0 0.0 0.00 0.00 0.00 98 1015.5
20260904045556 71 127 0.0 0.0 0.00 0.00 0.00 98 1015.6
20260904045056 71 127 0.0 0.0 0.00 0.00 0.00 98 1015.6
20260904044551 71 127 0.0 0.0 0.00 0.00 0.00 98 1015.0
20260904044048 71 127 0.0 0.0 0.00 0.00 0.00 98 1015.0
20260904043544 71 127 0.0 0.0 0.00 0.00 0.00 98 1015.2
20260904043039 71 127 0.0 0.0 0.00 0.00 0.00 98 1015.5
20260904042536 71 127 0.0 0.0 0.00 0.00 0.00 98 1015.8
20260904042031 71 127 0.0 0.0 0.00 0.00 0.00 98 1015.6
20260904041526 70 127 0.0 0.0 0.00 0.00 0.00 98 1015.3
20260904041022 70 127 0.0 0.0 0.00 0.00 0.00 98 1015.3
20260904040522 70 127 0.0 0.0 0.00 0.00 0.00 97 1015.5
20260904040020 70 127 0.0 0.0 0.00 0.38 0.38 97 1015.7
20260904035519 70 127 0.0 0.0 0.00 0.38 0.38 97 1015.8
20260904035018 70 127 0.0 0.0 0.00 0.38 0.38 97 1015.6
20260904034514 70 127 0.0 0.0 0.00 0.38 0.38 97 1015.6
20260904034009 70 127 0.0 0.0 0.00 0.38 0.38 97 1015.7
20260904033505 70 127 0.0 0.0 0.00 0.38 0.38 97 1015.6
20260904033002 70 127 0.0 0.0 0.00 0.38 0.38 97 1015.8
20260904032457 70 127 0.0 0.0 0.00 0.38 0.38 97 1016.0
20260904031956 70 127 0.0 0.0 0.00 0.38 0.38 96 1015.8
20260904031451 70 127 0.0 0.0 0.00 0.38 0.38 96 1016.0
20260904030947 70 127 0.0 0.0 0.00 0.38 0.38 96 1016.2
20260904030443 70 127 0.0 0.0 0.00 0.38 0.38 96 1015.8
20260904025937 70 127 0.0 0.0 0.00 0.38 0.38 96 1015.8
20260904025434 70 127 0.0 0.0 0.00 0.38 0.38 96 1015.7
20260904024933 70 127 0.0 0.0 0.00 0.38 0.38 95 1016.0
20260904024429 70 127 0.0 0.0 0.00 0.38 0.38 95 1015.6
20260904023925 71 127 0.0 0.0 0.00 0.38 0.38 95 1015.8
20260904023421 71 127 0.0 0.0 0.00 0.38 0.38 95 1015.7
20260904022920 71 127 0.0 0.0 0.00 0.38 0.38 95 1015.7
20260904022417 70 127 0.0 0.0 0.00 0.38 0.38 95 1015.5
20260904021913 70 127 0.0 0.0 0.00 0.38 0.38 95 1015.3
20260904021409 70 127 0.0 0.0 0.00 0.38 0.38 94 1015.4
20260904020903 70 127 0.0 0.0 0.00 0.38 0.38 94 1015.6
20260904020358 70 128 0.0 0.0 0.00 0.38 0.38 94 1015.4
20260904015857 71 127 0.0 0.0 0.00 0.38 0.38 94 1015.5
20260904015353 71 128 0.0 0.0 0.00 0.38 0.38 94 1015.5
20260904014846 71 127 0.0 0.0 0.00 0.38 0.38 94 1015.4
20260904014341 71 127 0.0 0.0 0.00 0.38 0.38 94 1015.3
20260904013837 71 127 0.0 0.0 0.00 0.38 0.38 93 1015.4
20260904013332 71 127 0.0 0.0 0.00 0.38 0.38 94 1015.3
20260904012822 71 127 0.0 0.0 0.00 0.38 0.38 94 1015.1
20260904012317 71 127 0.0 0.0 0.00 0.38 0.38 94 1015.4
20260904011816 71 127 0.0 0.0 0.00 0.38 0.38 93 1015.4
20260904011311 71 127 0.0 0.0 0.00 0.38 0.38 93 1015.2
20260904010811 71 127 0.0 0.0 0.00 0.38 0.38 93 1015.3
20260904010309 71 127 0.0 0.0 0.00 0.38 0.38 92 1015.0
20260904005808 71 127 0.0 0.0 0.00 0.38 0.38 92 1015.0
20260904005306 72 127 0.0 0.0 0.00 0.38 0.38 92 1015.0
20260904004759 72 127 0.0 0.0 0.00 0.38 0.38 92 1014.9
20260904004255 72 127 0.0 0.0 0.00 0.38 0.38 92 1014.7
20260904003750 72 127 0.0 0.0 0.00 0.38 0.38 92 1014.6
20260904003247 72 127 0.0 0.0 0.00 0.38 0.38 91 1014.8
20260904002742 73 127 0.0 0.0 0.00 0.38 0.38 91 1014.8
20260904002238 73 127 0.0 0.0 0.00 0.38 0.38 91 1014.7
20260904001732 73 127 0.0 0.0 0.00 0.38 0.38 90 1014.6
20260904001231 73 127 0.0 0.0 0.00 0.38 0.38 90 1014.7
20260904000726 73 129 0.0 0.0 0.00 0.38 0.38 89 1014.6
20260904000221 73 129 0.0 0.0 0.00 0.38 0.38 90 1014.8
20260903235716 74 129 0.0 0.0 0.00 0.38 0.38 90 1014.7
20260903235212 74 129 0.0 0.0 0.00 0.38 0.38 90 1014.6
20260903234706 74 129 0.0 0.0 0.00 0.38 0.38 89 1014.7
20260903234203 74 129 0.0 0.0 0.00 0.38 0.38 89 1014.8
20260903233658 74 130 0.0 0.0 0.00 0.38 0.38 90 1014.5
20260903233154 74 130 0.0 0.0 0.00 0.38 0.38 90 1014.7
20260903232652 74 130 0.0 0.0 0.00 0.38 0.38 90 1014.8
20260903232149 74 130 0.0 0.0 0.00 0.38 0.38 89 1014.5
20260903231648 74 129 0.0 0.0 0.00 0.38 0.38 88 1014.6
20260903231143 74 129 0.0 0.0 0.00 0.38 0.38 87 1014.7
20260903230639 75 129 0.0 0.0 0.00 0.38 0.38 87 1014.3
20260903230138 75 129 0.0 0.0 0.00 0.38 0.38 86 1014.4
20260903225635 75 145 0.0 1.0 0.00 0.38 0.38 85 1014.4
20260903225131 76 128 0.0 0.0 0.00 0.38 0.38 85 1014.3
20260903224627 77 129 0.0 0.0 0.00 0.38 0.38 87 1014.7
20260903224123 77 136 0.0 0.0 0.00 0.38 0.38 87 1014.7